TimeEST,TemperatureF,Dew PointF,Humidity,Sea Level PressureIn,VisibilityMPH,Wind Direction,Wind SpeedMPH,Gust SpeedMPH,PrecipitationIn,Events,Conditions,WindDirDegrees,DateUTC
12:15 AM,32.0,27.5,83,30.45,10.0,Calm,Calm,-,N/A,,Overcast,0,2012-11-11 05:15:00
12:35 AM,32.0,28.0,85,30.44,10.0,Calm,Calm,-,N/A,,Overcast,0,2012-11-11 05:35:00
12:55 AM,32.4,27.7,83,30.44,10.0,Calm,Calm,-,N/A,,Overcast,0,2012-11-11 05:55:00
1:35 AM,32.7,27.7,82,30.45,10.0,Calm,Calm,-,N/A,,Overcast,0,2012-11-11 06:35:00
1:55 AM,32.5,28.2,84,30.45,10.0,Calm,Calm,-,N/A,,Overcast,0,2012-11-11 06:55:00
2:15 AM,32.9,27.7,81,30.45,10.0,Calm,Calm,-,N/A,,Overcast,0,2012-11-11 07:15:00
2:35 AM,33.4,28.6,82,30.45,10.0,Calm,Calm,-,N/A,,Overcast,0,2012-11-11 07:35:00
2:55 AM,33.8,28.4,81,30.45,10.0,Calm,Calm,-,N/A,,Overcast,0,2012-11-11 07:55:00
3:15 AM,34.2,28.8,81,30.45,10.0,Calm,Calm,-,N/A,,Overcast,0,2012-11-11 08:15:00
3:35 AM,34.3,29.1,81,30.46,10.0,Calm,Calm,-,N/A,,Overcast,0,2012-11-11 08:35:00
3:55 AM,34.5,28.8,79,30.46,10.0,Calm,Calm,-,N/A,,Overcast,0,2012-11-11 08:55:00
4:15 AM,34.7,28.8,79,30.46,10.0,Calm,Calm,-,N/A,,Overcast,0,2012-11-11 09:15:00
4:35 AM,34.9,28.2,77,30.46,10.0,Calm,Calm,-,N/A,,Overcast,0,2012-11-11 09:35:00
4:55 AM,34.9,28.4,77,30.45,10.0,Calm,Calm,-,N/A,,Overcast,0,2012-11-11 09:55:00
5:15 AM,35.1,28.4,77,30.45,10.0,Calm,Calm,-,N/A,,Overcast,0,2012-11-11 10:15:00
5:35 AM,35.6,28.9,77,30.46,10.0,Calm,Calm,-,N/A,,Overcast,0,2012-11-11 10:35:00
5:55 AM,35.1,29.5,80,30.46,10.0,Calm,Calm,-,N/A,,Overcast,0,2012-11-11 10:55:00
6:15 AM,34.9,28.8,78,30.47,10.0,Calm,Calm,-,N/A,,Overcast,0,2012-11-11 11:15:00
6:35 AM,34.7,29.5,81,30.46,10.0,Calm,Calm,-,N/A,,Overcast,0,2012-11-11 11:35:00
6:55 AM,34.0,28.6,81,30.46,10.0,Calm,Calm,-,N/A,,Mostly Cloudy,0,2012-11-11 11:55:00
7:15 AM,35.4,29.8,80,30.45,10.0,ENE,4.6,-,N/A,,Overcast,70,2012-11-11 12:15:00
7:35 AM,36.1,28.2,73,30.46,10.0,Calm,Calm,-,N/A,,Overcast,0,2012-11-11 12:35:00
7:55 AM,36.5,28.4,72,30.47,10.0,Calm,Calm,-,N/A,,Overcast,0,2012-11-11 12:55:00
8:35 AM,37.8,28.9,71,30.47,10.0,Calm,Calm,-,N/A,,Overcast,0,2012-11-11 13:35:00
8:55 AM,38.7,28.8,68,30.47,10.0,Calm,Calm,-,N/A,,Overcast,0,2012-11-11 13:55:00
9:15 AM,39.4,29.3,67,30.47,10.0,Calm,Calm,-,N/A,,Overcast,0,2012-11-11 14:15:00
9:35 AM,40.3,29.7,66,30.47,10.0,East,3.5,-,N/A,,Overcast,90,2012-11-11 14:35:00
9:55 AM,40.8,29.7,64,30.47,10.0,Calm,Calm,-,N/A,,Overcast,0,2012-11-11 14:55:00
11:15 AM,45.7,33.4,62,30.44,7.0,Calm,Calm,-,N/A,,Overcast,0,2012-11-11 16:15:00
11:35 AM,45.7,33.6,63,30.43,10.0,East,3.5,-,N/A,,Mostly Cloudy,100,2012-11-11 16:35:00
11:55 AM,47.1,34.7,62,30.41,10.0,East,4.6,-,N/A,,Mostly Cloudy,90,2012-11-11 16:55:00
12:15 PM,48.0,34.7,60,30.41,10.0,East,4.6,-,N/A,,Scattered Clouds,90,2012-11-11 17:15:00
12:35 PM,49.1,34.3,57,30.40,10.0,SE,4.6,-,N/A,,Clear,130,2012-11-11 17:35:00
12:55 PM,49.8,34.7,56,30.39,10.0,Calm,Calm,-,N/A,,Clear,0,2012-11-11 17:55:00
1:15 PM,50.4,34.5,55,30.38,10.0,Calm,Calm,-,N/A,,Clear,0,2012-11-11 18:15:00
1:35 PM,51.1,35.8,56,30.38,10.0,East,4.6,-,N/A,,Clear,90,2012-11-11 18:35:00
1:55 PM,52.3,36.1,54,30.37,10.0,Calm,Calm,-,N/A,,Clear,0,2012-11-11 18:55:00
2:15 PM,53.2,36.9,54,30.37,10.0,Calm,Calm,-,N/A,,Clear,0,2012-11-11 19:15:00
2:35 PM,53.8,37.4,54,30.37,10.0,Calm,Calm,-,N/A,,Clear,0,2012-11-11 19:35:00
2:55 PM,53.8,37.0,53,30.38,10.0,Calm,Calm,-,N/A,,Clear,0,2012-11-11 19:55:00
3:15 PM,54.0,37.0,53,30.38,10.0,Calm,Calm,-,N/A,,Clear,0,2012-11-11 20:15:00
3:35 PM,51.8,38.3,60,30.38,10.0,Calm,Calm,-,N/A,,Clear,0,2012-11-11 20:35:00
3:55 PM,47.5,38.1,70,30.39,10.0,Calm,Calm,-,N/A,,Clear,0,2012-11-11 20:55:00
4:15 PM,45.9,38.3,75,30.39,10.0,Calm,Calm,-,N/A,,Clear,0,2012-11-11 21:15:00
4:35 PM,43.7,37.6,79,30.40,10.0,Calm,Calm,-,N/A,,Clear,0,2012-11-11 21:35:00
4:55 PM,43.2,37.6,81,30.40,10.0,Calm,Calm,-,N/A,,Clear,0,2012-11-11 21:55:00
5:15 PM,42.3,37.4,83,30.41,10.0,Calm,Calm,-,N/A,,Clear,0,2012-11-11 22:15:00
5:35 PM,40.8,37.2,87,30.42,10.0,Calm,Calm,-,N/A,,Clear,0,2012-11-11 22:35:00
5:55 PM,39.2,36.3,89,30.42,10.0,Calm,Calm,-,N/A,,Clear,0,2012-11-11 22:55:00
6:15 PM,38.3,36.0,91,30.42,10.0,Calm,Calm,-,N/A,,Clear,0,2012-11-11 23:15:00
6:35 PM,38.5,36.5,93,30.42,10.0,Calm,Calm,-,N/A,,Clear,0,2012-11-11 23:35:00
6:55 PM,36.7,35.1,94,30.43,7.0,Calm,Calm,-,N/A,,Clear,0,2012-11-11 23:55:00
7:15 PM,36.7,35.6,96,30.43,7.0,Calm,Calm,-,N/A,,Clear,0,2012-11-12 00:15:00
7:35 PM,36.1,35.1,96,30.43,7.0,Calm,Calm,-,N/A,,Clear,0,2012-11-12 00:35:00
7:55 PM,35.6,34.7,97,30.42,3.0,Calm,Calm,-,N/A,,Clear,0,2012-11-12 00:55:00
8:15 PM,35.1,34.3,97,30.43,5.0,Calm,Calm,-,N/A,,Clear,0,2012-11-12 01:15:00
8:35 PM,33.8,33.3,98,30.43,5.0,Calm,Calm,-,N/A,,Clear,0,2012-11-12 01:35:00
8:55 PM,33.6,33.1,98,30.44,3.0,Calm,Calm,-,N/A,,Clear,0,2012-11-12 01:55:00
9:15 PM,33.3,33.1,99,30.43,4.0,Calm,Calm,-,N/A,,Clear,0,2012-11-12 02:15:00
9:35 PM,32.9,32.5,99,30.43,3.0,Calm,Calm,-,N/A,,Clear,0,2012-11-12 02:35:00
9:55 PM,32.5,32.4,99,30.43,3.0,Calm,Calm,-,N/A,,Clear,0,2012-11-12 02:55:00
10:15 PM,32.2,32.0,99,30.43,1.5,Calm,Calm,-,N/A,,Mist,0,2012-11-12 03:15:00
10:35 PM,32.0,31.8,99,30.43,3.0,Calm,Calm,-,N/A,,Clear,0,2012-11-12 03:35:00
10:55 PM,31.1,31.1,100,30.43,3.0,Calm,Calm,-,N/A,,Clear,0,2012-11-12 03:55:00
11:15 PM,31.8,31.8,100,30.43,4.0,Calm,Calm,-,N/A,,Clear,0,2012-11-12 04:15:00
11:35 PM,31.1,31.1,100,30.43,2.0,Calm,Calm,-,N/A,,Clear,0,2012-11-12 04:35:00
11:55 PM,31.1,31.1,100,30.43,3.0,Calm,Calm,-,N/A,,Clear,0,2012-11-12 04:55:00